Time,TemperatureF,DewpointF,PressureIn,WindDirection,WindDirectionDegrees,WindSpeedMPH,WindSpeedGustMPH,Humidity,HourlyPrecipIn,Conditions,Clouds,dailyrainin,SoftwareType,DateUTC
2013-08-31 00:05:00,84.7,69.3,29.90,SSW,202,0.0,-999.0,60,-99.99,,,0.00,Acu-Link.com,2013-08-31 05:05:00,
2013-08-31 00:21:00,84.6,69.1,29.90,SSW,202,0.0,-999.0,60,-99.99,,,0.00,Acu-Link.com,2013-08-31 05:21:00,
2013-08-31 00:36:00,84.6,69.6,29.90,SSE,157,2.2,-999.0,61,-99.99,,,0.00,Acu-Link.com,2013-08-31 05:36:00,
2013-08-31 00:51:00,84.0,69.1,29.90,SW,225,0.0,-999.0,61,-99.99,,,0.00,Acu-Link.com,2013-08-31 05:51:00,
2013-08-31 01:06:00,83.5,69.5,29.89,SW,225,0.0,-999.0,63,-99.99,,,0.00,Acu-Link.com,2013-08-31 06:06:00,
2013-08-31 01:21:00,83.5,70.0,29.89,South,180,0.0,-999.0,64,-99.99,,,0.00,Acu-Link.com,2013-08-31 06:21:00,
2013-08-31 01:37:00,83.3,69.8,29.89,SE,135,2.7,-999.0,64,-99.99,,,0.00,Acu-Link.com,2013-08-31 06:37:00,
2013-08-31 01:52:00,82.8,69.8,29.89,South,180,2.2,-999.0,65,-99.99,,,0.00,Acu-Link.com,2013-08-31 06:52:00,
2013-08-31 02:07:00,82.4,69.9,29.90,ESE,112,2.7,-999.0,66,-99.99,,,0.00,Acu-Link.com,2013-08-31 07:07:00,
2013-08-31 02:22:00,81.7,69.6,29.90,SSE,157,2.7,-999.0,67,-99.99,,,0.00,Acu-Link.com,2013-08-31 07:22:00,
2013-08-31 02:38:00,81.5,69.5,29.90,SW,225,3.8,-999.0,67,-99.99,,,0.00,Acu-Link.com,2013-08-31 07:38:00,
2013-08-31 02:53:00,81.7,69.6,29.90,SE,135,3.8,-999.0,67,-99.99,,,0.00,Acu-Link.com,2013-08-31 07:53:00,
2013-08-31 03:09:00,81.9,70.2,29.91,South,180,3.8,-999.0,68,-99.99,,,0.00,Acu-Link.com,2013-08-31 08:09:00,
2013-08-31 03:24:00,81.3,69.7,29.91,SSW,202,2.7,-999.0,68,-99.99,,,0.00,Acu-Link.com,2013-08-31 08:24:00,
2013-08-31 03:39:00,80.8,69.6,29.91,SSW,202,2.7,-999.0,69,-99.99,,,0.00,Acu-Link.com,2013-08-31 08:39:00,
2013-08-31 03:54:00,80.2,69.5,29.91,SSE,157,1.6,-999.0,70,-99.99,,,0.00,Acu-Link.com,2013-08-31 08:54:00,
2013-08-31 04:09:00,79.5,69.3,29.92,South,180,3.1,-999.0,71,-99.99,,,0.00,Acu-Link.com,2013-08-31 09:09:00,
2013-08-31 04:24:00,79.9,69.6,29.92,West,270,1.6,-999.0,71,-99.99,,,0.00,Acu-Link.com,2013-08-31 09:24:00,
2013-08-31 04:39:00,80.1,70.2,29.92,West,270,2.7,-999.0,72,-99.99,,,0.00,Acu-Link.com,2013-08-31 09:39:00,
2013-08-31 04:55:00,79.9,69.6,29.92,SE,135,3.8,-999.0,71,-99.99,,,0.00,Acu-Link.com,2013-08-31 09:55:00,
2013-08-31 05:10:00,79.7,69.0,29.92,SSE,157,4.3,-999.0,70,-99.99,,,0.00,Acu-Link.com,2013-08-31 10:10:00,
2013-08-31 05:25:00,79.3,68.3,29.91,SSE,157,5.1,-999.0,69,-99.99,,,0.00,Acu-Link.com,2013-08-31 10:25:00,
2013-08-31 05:40:00,79.2,67.2,29.92,SSE,157,4.7,-999.0,67,-99.99,,,0.00,Acu-Link.com,2013-08-31 10:40:00,
2013-08-31 05:56:00,79.2,65.9,29.92,SE,135,3.1,-999.0,64,-99.99,,,0.00,Acu-Link.com,2013-08-31 10:56:00,
2013-08-31 06:11:00,78.4,64.8,29.92,SSW,202,2.2,-999.0,63,-99.99,,,0.00,Acu-Link.com,2013-08-31 11:11:00,
2013-08-31 06:26:00,78.1,63.0,29.92,South,180,2.7,-999.0,60,-99.99,,,0.00,Acu-Link.com,2013-08-31 11:26:00,
2013-08-31 06:41:00,77.4,60.4,29.92,South,180,0.0,-999.0,56,-99.99,,,0.00,Acu-Link.com,2013-08-31 11:41:00,
2013-08-31 06:56:00,77.5,58.0,29.92,SE,135,2.7,-999.0,51,-99.99,,,0.00,Acu-Link.com,2013-08-31 11:56:00,
2013-08-31 07:12:00,77.7,57.0,29.93,SE,135,2.2,-999.0,49,-99.99,,,0.00,Acu-Link.com,2013-08-31 12:12:00,
2013-08-31 07:27:00,78.3,57.5,29.93,SSW,202,3.8,-999.0,49,-99.99,,,0.00,Acu-Link.com,2013-08-31 12:27:00,
2013-08-31 07:42:00,79.2,59.5,29.94,East,90,3.1,-999.0,51,-99.99,,,0.00,Acu-Link.com,2013-08-31 12:42:00,
2013-08-31 07:57:00,81.1,65.4,29.94,SW,225,4.7,-999.0,59,-99.99,,,0.00,Acu-Link.com,2013-08-31 12:57:00,
2013-08-31 08:12:00,82.8,69.3,29.94,East,90,4.3,-999.0,64,-99.99,,,0.00,Acu-Link.com,2013-08-31 13:12:00,
2013-08-31 08:28:00,83.5,71.3,29.94,SSE,157,3.8,-999.0,67,-99.99,,,0.00,Acu-Link.com,2013-08-31 13:28:00,
2013-08-31 08:43:00,85.1,74.2,29.95,SE,135,4.3,-999.0,70,-99.99,,,0.00,Acu-Link.com,2013-08-31 13:43:00,
2013-08-31 08:58:00,86.7,75.7,29.95,SSE,157,3.8,-999.0,70,-99.99,,,0.16,Acu-Link.com,2013-08-31 13:58:00,
2013-08-31 09:13:00,88.0,76.5,29.95,SW,225,3.1,-999.0,69,-99.99,,,0.16,Acu-Link.com,2013-08-31 14:13:00,
2013-08-31 09:28:00,86.9,75.9,29.95,SW,225,6.3,-999.0,70,-99.99,,,0.16,Acu-Link.com,2013-08-31 14:28:00,
2013-08-31 09:44:00,88.0,76.5,29.95,SE,135,3.1,-999.0,69,-99.99,,,0.16,Acu-Link.com,2013-08-31 14:44:00,
2013-08-31 09:59:00,89.4,77.0,29.95,WSW,247,5.8,-999.0,67,-99.99,,,0.16,Acu-Link.com,2013-08-31 14:59:00,
2013-08-31 10:14:00,90.0,76.6,29.95,SW,225,5.1,-999.0,65,-99.99,,,0.16,Acu-Link.com,2013-08-31 15:14:00,
2013-08-31 10:29:00,92.1,77.2,29.94,SW,225,3.8,-999.0,62,-99.99,,,0.16,Acu-Link.com,2013-08-31 15:29:00,
2013-08-31 10:45:00,92.5,77.5,29.93,SSW,202,2.7,-999.0,62,-99.99,,,0.16,Acu-Link.com,2013-08-31 15:45:00,
2013-08-31 11:00:00,94.3,77.2,29.93,SW,225,4.3,-999.0,58,-99.99,,,0.16,Acu-Link.com,2013-08-31 16:00:00,
2013-08-31 11:15:00,96.1,78.3,29.93,SSW,202,5.1,-999.0,57,-99.99,,,0.16,Acu-Link.com,2013-08-31 16:15:00,
2013-08-31 11:30:00,96.8,78.5,29.93,SSW,202,2.2,-999.0,56,-99.99,,,0.16,Acu-Link.com,2013-08-31 16:30:00,
2013-08-31 11:45:00,97.7,77.6,29.93,South,180,3.1,-999.0,53,-99.99,,,0.16,Acu-Link.com,2013-08-31 16:45:00,
2013-08-31 12:01:00,99.7,77.7,29.93,SSW,202,0.0,-999.0,50,-99.99,,,0.16,Acu-Link.com,2013-08-31 17:01:00,
2013-08-31 12:16:00,99.7,75.8,29.92,WSW,247,4.3,-999.0,47,-99.99,,,0.16,Acu-Link.com,2013-08-31 17:16:00,
2013-08-31 12:31:00,100.9,75.0,29.91,ESE,112,2.7,-999.0,44,-99.99,,,0.16,Acu-Link.com,2013-08-31 17:31:00,
2013-08-31 12:46:00,102.2,71.7,29.91,SW,225,4.7,-999.0,38,-99.99,,,0.16,Acu-Link.com,2013-08-31 17:46:00,
2013-08-31 13:01:00,103.3,71.1,29.90,SSW,202,3.1,-999.0,36,-99.99,,,0.16,Acu-Link.com,2013-08-31 18:01:00,
2013-08-31 13:17:00,102.9,73.1,29.90,South,180,7.4,-999.0,39,-99.99,,,0.16,Acu-Link.com,2013-08-31 18:17:00,
2013-08-31 13:32:00,103.6,73.0,29.89,SSE,157,4.7,-999.0,38,-99.99,,,0.16,Acu-Link.com,2013-08-31 18:32:00,
2013-08-31 13:47:00,104.4,72.8,29.89,NNW,337,2.2,-999.0,37,-99.99,,,0.16,Acu-Link.com,2013-08-31 18:47:00,
2013-08-31 14:02:00,101.5,71.1,29.88,South,180,2.7,-999.0,38,-99.99,,,0.16,Acu-Link.com,2013-08-31 19:02:00,
2013-08-31 14:17:00,104.9,73.3,29.88,West,270,2.2,-999.0,37,-99.99,,,0.16,Acu-Link.com,2013-08-31 19:17:00,
2013-08-31 14:33:00,105.6,71.4,29.87,SW,225,11.4,-999.0,34,-99.99,,,0.16,Acu-Link.com,2013-08-31 19:33:00,
2013-08-31 14:48:00,105.3,71.1,29.87,West,270,2.2,-999.0,34,-99.99,,,0.16,Acu-Link.com,2013-08-31 19:48:00,
2013-08-31 15:03:00,106.0,69.9,29.86,NNW,337,1.1,-999.0,32,-99.99,,,0.16,Acu-Link.com,2013-08-31 20:03:00,
2013-08-31 15:18:00,106.5,71.3,29.85,SSW,202,4.7,-999.0,33,-99.99,,,0.16,Acu-Link.com,2013-08-31 20:18:00,
2013-08-31 15:34:00,106.0,70.8,29.85,South,180,3.8,-999.0,33,-99.99,,,0.16,Acu-Link.com,2013-08-31 20:34:00,
2013-08-31 15:49:00,106.3,70.2,29.85,East,90,2.7,-999.0,32,-99.99,,,0.16,Acu-Link.com,2013-08-31 20:49:00,
2013-08-31 16:04:00,106.3,71.2,29.84,SSW,202,4.3,-999.0,33,-99.99,,,0.16,Acu-Link.com,2013-08-31 21:04:00,
2013-08-31 16:19:00,105.8,68.9,29.83,South,180,4.3,-999.0,31,-99.99,,,0.16,Acu-Link.com,2013-08-31 21:19:00,
2013-08-31 16:34:00,105.8,69.8,29.83,NE,45,3.8,-999.0,32,-99.99,,,0.16,Acu-Link.com,2013-08-31 21:34:00,
2013-08-31 16:50:00,104.4,69.4,29.83,SSE,157,3.1,-999.0,33,-99.99,,,0.16,Acu-Link.com,2013-08-31 21:50:00,
2013-08-31 17:05:00,103.8,69.0,29.83,SE,135,3.1,-999.0,33,-99.99,,,0.16,Acu-Link.com,2013-08-31 22:05:00,
2013-08-31 17:20:00,103.8,69.8,29.82,South,180,5.1,-999.0,34,-99.99,,,0.16,Acu-Link.com,2013-08-31 22:20:00,
2013-08-31 17:35:00,103.1,69.2,29.82,ESE,112,4.3,-999.0,34,-99.99,,,0.16,Acu-Link.com,2013-08-31 22:35:00,
2013-08-31 17:50:00,102.7,69.8,29.83,East,90,4.7,-999.0,35,-99.99,,,0.16,Acu-Link.com,2013-08-31 22:50:00,
2013-08-31 18:06:00,102.9,69.9,29.82,NNE,22,4.7,-999.0,35,-99.99,,,0.16,Acu-Link.com,2013-08-31 23:06:00,
2013-08-31 18:21:00,102.0,69.1,29.83,ENE,67,1.6,-999.0,35,-99.99,,,0.16,Acu-Link.com,2013-08-31 23:21:00,
2013-08-31 18:36:00,102.9,69.9,29.82,ESE,112,4.7,-999.0,35,-99.99,,,0.16,Acu-Link.com,2013-08-31 23:36:00,
2013-08-31 18:51:00,101.3,69.3,29.82,SSE,157,2.7,-999.0,36,-99.99,,,0.16,Acu-Link.com,2013-08-31 23:51:00,
2013-08-31 19:06:00,100.6,69.5,29.82,SSW,202,3.1,-999.0,37,-99.99,,,0.16,Acu-Link.com,2013-09-01 00:06:00,
2013-08-31 19:22:00,99.3,69.2,29.82,NNE,22,4.7,-999.0,38,-99.99,,,0.16,Acu-Link.com,2013-09-01 00:22:00,
2013-08-31 19:37:00,97.9,69.4,29.83,SW,225,1.1,-999.0,40,-99.99,,,0.16,Acu-Link.com,2013-09-01 00:37:00,
2013-08-31 19:52:00,96.3,68.7,29.82,SSE,157,0.0,-999.0,41,-99.99,,,0.16,Acu-Link.com,2013-09-01 00:52:00,
2013-08-31 20:07:00,95.0,68.3,29.83,SSE,157,1.6,-999.0,42,-99.99,,,0.16,Acu-Link.com,2013-09-01 01:07:00,
2013-08-31 20:23:00,93.7,68.5,29.83,West,270,0.0,-999.0,44,-99.99,,,0.16,Acu-Link.com,2013-09-01 01:23:00,
2013-08-31 20:38:00,92.8,69.0,29.83,SSW,202,1.6,-999.0,46,-99.99,,,0.16,Acu-Link.com,2013-09-01 01:38:00,
2013-08-31 20:53:00,91.8,68.6,29.84,SSE,157,0.0,-999.0,47,-99.99,,,0.16,Acu-Link.com,2013-09-01 01:53:00,
2013-08-31 21:08:00,91.2,68.1,29.84,SSE,157,0.0,-999.0,47,-99.99,,,0.16,Acu-Link.com,2013-09-01 02:08:00,
2013-08-31 21:23:00,91.0,68.6,29.84,SSE,157,3.1,-999.0,48,-99.99,,,0.16,Acu-Link.com,2013-09-01 02:23:00,
2013-08-31 21:39:00,90.3,68.5,29.84,SSE,157,2.7,-999.0,49,-99.99,,,0.16,Acu-Link.com,2013-09-01 02:39:00,
2013-08-31 21:54:00,89.8,68.6,29.85,South,180,2.7,-999.0,50,-99.99,,,0.16,Acu-Link.com,2013-09-01 02:54:00,
2013-08-31 22:09:00,89.2,68.7,29.85,SSW,202,2.7,-999.0,51,-99.99,,,0.16,Acu-Link.com,2013-09-01 03:09:00,
2013-08-31 22:24:00,88.7,68.8,29.85,SE,135,0.0,-999.0,52,-99.99,,,0.16,Acu-Link.com,2013-09-01 03:24:00,
2013-08-31 22:39:00,88.0,69.2,29.85,South,180,0.0,-999.0,54,-99.99,,,0.16,Acu-Link.com,2013-09-01 03:39:00,
2013-08-31 22:55:00,87.6,69.4,29.85,South,180,2.7,-999.0,55,-99.99,,,0.16,Acu-Link.com,2013-09-01 03:55:00,
2013-08-31 23:10:00,86.9,69.8,29.85,South,180,1.1,-999.0,57,-99.99,,,0.16,Acu-Link.com,2013-09-01 04:10:00,
2013-08-31 23:25:00,86.2,69.6,29.85,WSW,247,2.2,-999.0,58,-99.99,,,0.16,Acu-Link.com,2013-09-01 04:25:00,
2013-08-31 23:40:00,86.0,70.0,29.84,SSE,157,2.7,-999.0,59,-99.99,,,0.16,Acu-Link.com,2013-09-01 04:40:00,
2013-08-31 23:55:00,86.2,70.1,29.84,ESE,112,1.6,-999.0,59,-99.99,,,0.16,Acu-Link.com,2013-09-01 04:55:00,